TimeCDT,TemperatureF,Dew PointF,Humidity,Sea Level PressureIn,VisibilityMPH,Wind Direction,Wind SpeedMPH,Gust SpeedMPH,PrecipitationIn,Events,Conditions,WindDirDegrees,DateUTC
12:15 AM,57.2,48.2,72,29.98,10.0,ENE,3.5,-,N/A,,Clear,60,2013-10-02 05:15:00
12:35 AM,57.2,50.0,77,29.99,10.0,East,5.8,-,N/A,,Clear,90,2013-10-02 05:35:00
12:55 AM,57.2,41.0,55,29.99,10.0,ENE,5.8,-,N/A,,Clear,60,2013-10-02 05:55:00
1:15 AM,57.2,35.6,44,29.99,10.0,ENE,5.8,-,N/A,,Clear,70,2013-10-02 06:15:00
1:35 AM,57.2,39.2,51,29.99,10.0,East,4.6,-,N/A,,Clear,80,2013-10-02 06:35:00
1:55 AM,57.2,39.2,51,30.00,10.0,East,5.8,-,N/A,,Clear,80,2013-10-02 06:55:00
2:15 AM,53.6,35.6,51,30.00,10.0,East,8.1,-,N/A,,Clear,90,2013-10-02 07:15:00
2:35 AM,53.6,35.6,51,30.00,10.0,East,6.9,-,N/A,,Clear,90,2013-10-02 07:35:00
2:55 AM,53.6,37.4,54,30.00,10.0,East,5.8,-,N/A,,Clear,80,2013-10-02 07:55:00
3:15 AM,51.8,37.4,58,30.00,10.0,ENE,5.8,-,N/A,,Clear,60,2013-10-02 08:15:00
3:35 AM,51.8,37.4,58,30.00,10.0,ENE,5.8,-,N/A,,Clear,70,2013-10-02 08:35:00
3:55 AM,51.8,37.4,58,30.00,10.0,ENE,6.9,-,N/A,,Clear,60,2013-10-02 08:55:00
4:15 AM,51.8,37.4,58,30.00,10.0,ENE,5.8,-,N/A,,Clear,60,2013-10-02 09:15:00
4:35 AM,50.0,37.4,62,30.00,10.0,ENE,6.9,-,N/A,,Clear,70,2013-10-02 09:35:00
4:55 AM,50.0,37.4,62,30.00,10.0,East,6.9,-,N/A,,Unknown,80,2013-10-02 09:55:00
5:15 AM,50.0,37.4,62,30.00,10.0,ENE,5.8,-,N/A,,Clear,70,2013-10-02 10:15:00
5:35 AM,50.0,39.2,66,30.00,10.0,East,6.9,-,N/A,,Clear,80,2013-10-02 10:35:00
5:55 AM,51.8,37.4,58,30.00,10.0,East,6.9,-,N/A,,Scattered Clouds,100,2013-10-02 10:55:00
6:15 AM,53.6,37.4,54,30.00,10.0,ESE,6.9,-,N/A,,Mostly Cloudy,110,2013-10-02 11:15:00
6:35 AM,55.4,37.4,51,30.00,10.0,ESE,8.1,-,N/A,,Overcast,120,2013-10-02 11:35:00
6:55 AM,55.4,37.4,51,30.00,10.0,ESE,6.9,-,N/A,,Mostly Cloudy,120,2013-10-02 11:55:00
7:15 AM,57.2,35.6,44,30.00,10.0,ESE,8.1,-,N/A,,Mostly Cloudy,120,2013-10-02 12:15:00
7:35 AM,55.4,35.6,47,30.00,8.0,North,-9999.0,-,N/A,,Partly Cloudy,0,2013-10-02 12:35:00
7:55 AM,57.2,37.4,48,30.00,10.0,ESE,9.2,-,N/A,,Scattered Clouds,120,2013-10-02 12:55:00
8:15 AM,57.2,37.4,48,30.00,10.0,SE,9.2,-,N/A,,Partly Cloudy,130,2013-10-02 13:15:00
8:35 AM,59.0,39.2,48,30.00,10.0,ESE,10.4,17.3,N/A,,Clear,120,2013-10-02 13:35:00
8:55 AM,60.8,39.2,45,30.00,10.0,SE,13.8,-,N/A,,Clear,130,2013-10-02 13:55:00
9:15 AM,62.6,39.2,42,30.00,10.0,SE,11.5,18.4,N/A,,Scattered Clouds,130,2013-10-02 14:15:00
9:35 AM,62.6,37.4,39,30.00,10.0,SE,12.7,-,N/A,,Mostly Cloudy,130,2013-10-02 14:35:00
9:55 AM,64.4,37.4,37,29.99,10.0,SE,16.1,23.0,N/A,,Scattered Clouds,130,2013-10-02 14:55:00
10:15 AM,66.2,37.4,35,29.99,10.0,ESE,15.0,21.9,N/A,,Partly Cloudy,120,2013-10-02 15:15:00
10:35 AM,68.0,39.2,35,29.98,10.0,SE,13.8,23.0,N/A,,Clear,130,2013-10-02 15:35:00
10:55 AM,68.0,41.0,37,29.98,10.0,SE,12.7,20.7,N/A,,Clear,130,2013-10-02 15:55:00
11:15 AM,69.8,42.8,38,29.97,10.0,SE,13.8,23.0,N/A,,Clear,130,2013-10-02 16:15:00
11:35 AM,73.4,46.4,38,29.97,10.0,SE,13.8,19.6,N/A,,Clear,130,2013-10-02 16:35:00
11:55 AM,75.2,48.2,38,29.96,10.0,SE,15.0,-,N/A,,Clear,130,2013-10-02 16:55:00
12:15 PM,75.2,51.8,44,29.96,10.0,SE,11.5,18.4,N/A,,Clear,130,2013-10-02 17:15:00
12:35 PM,77.0,53.6,44,29.95,10.0,SE,13.8,20.7,N/A,,Clear,130,2013-10-02 17:35:00
12:55 PM,77.0,55.4,47,29.93,10.0,SE,12.7,21.9,N/A,,Clear,140,2013-10-02 17:55:00
1:15 PM,78.8,55.4,44,29.93,10.0,SSE,11.5,20.7,N/A,,Clear,150,2013-10-02 18:15:00
1:35 PM,77.0,57.2,50,29.92,10.0,SE,13.8,20.7,N/A,,Clear,140,2013-10-02 18:35:00
1:55 PM,80.6,60.8,51,29.90,10.0,SSE,12.7,23.0,N/A,,Clear,160,2013-10-02 18:55:00
2:15 PM,80.6,60.8,51,29.89,10.0,South,15.0,20.7,N/A,,Clear,170,2013-10-02 19:15:00
2:35 PM,82.4,62.6,51,29.88,10.0,SSE,12.7,23.0,N/A,,Partly Cloudy,150,2013-10-02 19:35:00
2:55 PM,80.6,60.8,51,29.87,10.0,South,18.4,25.3,N/A,,Partly Cloudy,170,2013-10-02 19:55:00
3:15 PM,82.4,60.8,48,29.86,10.0,South,18.4,28.8,N/A,,Partly Cloudy,190,2013-10-02 20:15:00
3:35 PM,82.4,60.8,48,29.85,10.0,South,16.1,26.5,N/A,,Clear,180,2013-10-02 20:35:00
3:55 PM,82.4,59.0,45,29.85,10.0,South,18.4,-,N/A,,Clear,190,2013-10-02 20:55:00
4:15 PM,82.4,60.8,48,29.84,10.0,South,15.0,21.9,N/A,,Clear,170,2013-10-02 21:15:00
4:35 PM,82.4,57.2,42,29.83,10.0,South,21.9,-,N/A,,Clear,180,2013-10-02 21:35:00
4:55 PM,82.4,59.0,45,29.82,10.0,South,19.6,28.8,N/A,,Clear,170,2013-10-02 21:55:00
5:15 PM,82.4,59.0,45,29.82,10.0,South,21.9,-,N/A,,Clear,180,2013-10-02 22:15:00
5:35 PM,82.4,59.0,45,29.83,10.0,South,19.6,-,N/A,,Clear,190,2013-10-02 22:35:00
5:55 PM,80.6,57.2,45,29.83,10.0,SSW,18.4,-,N/A,,Clear,200,2013-10-02 22:55:00
6:15 PM,78.8,57.2,47,29.82,10.0,SSW,16.1,21.9,N/A,,Clear,200,2013-10-02 23:15:00
6:35 PM,77.0,57.2,50,29.83,9.0,South,11.5,-,N/A,,Partly Cloudy,190,2013-10-02 23:35:00
6:55 PM,77.0,59.0,54,29.83,10.0,South,6.9,-,N/A,,Mostly Cloudy,180,2013-10-02 23:55:00
7:15 PM,75.2,59.0,57,29.83,10.0,South,10.4,-,N/A,,Scattered Clouds,180,2013-10-03 00:15:00
7:35 PM,75.2,59.0,57,29.82,10.0,South,9.2,-,N/A,,Mostly Cloudy,180,2013-10-03 00:35:00
7:55 PM,75.2,59.0,57,29.82,10.0,South,9.2,-,N/A,,Partly Cloudy,170,2013-10-03 00:55:00
8:15 PM,73.4,59.0,61,29.82,10.0,SSE,8.1,-,N/A,,Scattered Clouds,160,2013-10-03 01:15:00
8:35 PM,73.4,59.0,61,29.83,10.0,South,9.2,-,N/A,,Mostly Cloudy,170,2013-10-03 01:35:00
8:55 PM,71.6,59.0,64,29.83,10.0,South,9.2,-,N/A,,Mostly Cloudy,170,2013-10-03 01:55:00
9:15 PM,69.8,59.0,68,29.84,10.0,South,8.1,-,N/A,,Clear,180,2013-10-03 02:15:00
9:35 PM,68.0,59.0,73,29.84,10.0,South,6.9,-,N/A,,Clear,190,2013-10-03 02:35:00
9:55 PM,68.0,59.0,73,29.84,10.0,South,9.2,-,N/A,,Clear,180,2013-10-03 02:55:00
10:15 PM,68.0,60.8,78,29.84,10.0,South,9.2,-,N/A,,Partly Cloudy,180,2013-10-03 03:15:00
10:35 PM,69.8,60.8,73,29.84,10.0,South,12.7,-,N/A,,Scattered Clouds,190,2013-10-03 03:35:00
10:55 PM,71.6,60.8,69,29.84,10.0,SSW,10.4,18.4,N/A,,Partly Cloudy,210,2013-10-03 03:55:00
11:15 PM,69.8,60.8,73,29.84,10.0,SSW,6.9,-,N/A,,Partly Cloudy,200,2013-10-03 04:15:00
11:35 PM,69.8,59.0,68,29.84,10.0,SSW,6.9,-,N/A,,Clear,200,2013-10-03 04:35:00
11:55 PM,66.2,59.0,78,29.83,10.0,SSW,8.1,-,N/A,,Clear,200,2013-10-03 04:55:00